Etusivu
METAR-TAF:

METAR-TAF

Lentoasemat :

Comanche National Grassland

Springfield, Colorado, Yhdysvallat

Leveyspiiri: 37-17N, Pituuspiiri: 102-37W, korkeus merenpinnasta: 1335 m

Tämänhetkinen sää

Tämä raportti tehtiin 51 minuuttia sitten, kello 15.56 UTC
Tuuli 25 kn etelästä puuskistuen 31 kn:hen
Lämpötila 26°C
Kosteus 58%
Ilmanpaine 1013 hPa

METAR: KSPD 191556Z AUTO 19025G31KT 26/17 A2992 RMK AO1 PK WND 18031/1555 SLP064 T02560172

Aika: 10:47 (16:47 UTC)


TAF: puuttuu

Säähavainnot ja -ennusteet yli 4000 lentoasemalta (METAR- ja TAF-raportit).

Käytössä olevat sääasemat on merkitty karttaan keltaisilla ja punaisilla pisteillä.

Aseta hiiri pisteen päälle nähdäksesi sääaseman nimen.

Klikkaa sitten nähdäksesi säähavainnot ja -ennusteet.

Kartan vaihtaminen: klikkaa mustalla rastilla varustettuja vihreitä pisteitä, niin voit zoomata sisään; viivalla varustettua vihreää pistettä, niin voit zoomata ulos tai vihreitä nuolia, niin pääset viereisille kartoille.


METAR-TAF: